Langdon, ND

11:27 PM CDT on July 26, 2017 (GMT -0500)
Langdon

Weather History for KD55 - December, 2012

Change the Weather History Date:

Saturday, December 29, 2012

  Actual Average (KDVL) Record (KDVL)
Temperature  
Mean Temperature 1 °F -  
Max Temperature 6 °F 15 °F 46 °F (1999)
Min Temperature -4 °F -2 °F -27 °F (1996)
Degree Days  
Heating Degree Days 64    
Moisture  
Dew Point -2 °F    
Average Humidity 89    
Maximum Humidity 92    
Minimum Humidity 78    
Precipitation  
Precipitation 0.00 in - - ()
Sea Level Pressure  
Sea Level Pressure 29.95 in    
Wind  
Wind Speed 8 mph (WSW)    
Max Wind Speed 16 mph    
Max Gust Speed -    
Visibility 10 miles    
Events Snow    
Averages and records for this station are not official NWS values.
T = Trace of Precipitation, MM = Missing Value Source: NWS Daily Summary

Daily Weather History Graph

Daily Weather History Graph

Search for Another Location

Airport or City:

Trip Planner

Search our weather history database for the weather conditions in past years. The results will help you decide how hot, cold, wet, or windy it might be!

Date:

Astronomy

Dec. 29, 2012 Rise Set
Actual Time 8:26 AM CST 4:45 PM CST
Civil Twilight 7:49 AM CST 5:22 PM CST
Nautical Twilight 7:09 AM CST 6:02 PM CST
Astronomical Twilight 6:30 AM CST 6:41 PM CST
Moon 6:29 PM CST (12/29) 8:52 AM CST (12/29)
Length of Visible Light 9h 33m
Length of Day
8h 19m
Full, 98% of the Moon is Illuminated
Dec 29
Full
Jan 4
Last Quarter
Jan 11
New
Jan 18
First Quarter
Jan 26
Full

Hourly Weather History & Observations

Time (CST) Temp. Windchill Dew Point Humidity Pressure Visibility Wind Dir Wind Speed Gust Speed Precip Events Conditions
12:15 AM -0.4 °F -14.7 °F -2.2 °F 92% 29.92 in 9.0 mi West 8.1 mph - N/A Snow Light Snow
12:35 AM -0.4 °F -14.7 °F -4.0 °F 85% 29.92 in 10.0 mi West 8.1 mph - N/A Snow Light Snow
12:55 AM -0.4 °F -13.4 °F -4.0 °F 85% 29.92 in 10.0 mi West 6.9 mph - N/A   Overcast
1:15 AM -0.4 °F -14.7 °F -4.0 °F 85% 29.92 in 10.0 mi West 8.1 mph - N/A   Overcast
1:35 AM -0.4 °F -14.7 °F -4.0 °F 85% 29.92 in 10.0 mi West 8.1 mph - N/A   Overcast
1:55 AM -0.4 °F -14.7 °F -4.0 °F 85% 29.92 in 10.0 mi WSW 8.1 mph - N/A Snow Light Snow
2:15 AM -0.4 °F -12.0 °F -4.0 °F 85% 29.93 in 10.0 mi West 5.8 mph - N/A   Overcast
2:35 AM -0.4 °F -10.4 °F -4.0 °F 85% 29.92 in 10.0 mi West 4.6 mph - N/A Snow Light Snow
2:55 AM -0.4 °F -10.4 °F -2.2 °F 92% 29.92 in 10.0 mi West 4.6 mph - N/A   Overcast
3:15 AM -0.4 °F -10.4 °F -2.2 °F 92% 29.92 in 10.0 mi West 4.6 mph - N/A Snow Light Snow
3:35 AM -0.4 °F -12.0 °F -2.2 °F 92% 29.92 in 7.0 mi WNW 5.8 mph - N/A Snow Light Snow
3:55 AM 1.4 °F -8.3 °F -0.4 °F 92% 29.93 in 10.0 mi West 4.6 mph - N/A   Overcast
4:15 AM 3.2 °F -10.3 °F -0.4 °F 85% 29.93 in 10.0 mi NW 8.1 mph - N/A   Overcast
4:35 AM -0.4 °F -12.0 °F -2.2 °F 92% 29.92 in 10.0 mi West 5.8 mph - N/A   Overcast
4:55 AM -0.4 °F -13.4 °F -2.2 °F 92% 29.93 in 10.0 mi West 6.9 mph - N/A   Overcast
5:15 AM -0.4 °F -13.4 °F -2.2 °F 92% 29.93 in 10.0 mi West 6.9 mph - N/A   Overcast
5:35 AM -0.4 °F -13.4 °F -2.2 °F 92% 29.93 in 9.0 mi West 6.9 mph - N/A Snow Light Snow
5:55 AM 1.4 °F -11.3 °F -2.2 °F 85% 29.93 in 9.0 mi West 6.9 mph - N/A Snow Light Snow
6:15 AM 1.4 °F -13.5 °F -0.4 °F 92% 29.94 in 9.0 mi WNW 9.2 mph - N/A Snow Light Snow
6:35 AM 3.2 °F -10.3 °F -0.4 °F 85% 29.94 in 9.0 mi WNW 8.1 mph - N/A Snow Light Snow
6:55 AM 1.4 °F -13.5 °F -0.4 °F 92% 29.94 in 9.0 mi NW 9.2 mph - N/A Snow Light Snow
7:15 AM 1.4 °F -14.5 °F -0.4 °F 92% 29.95 in 7.0 mi NW 10.4 mph - N/A Snow Light Snow
7:35 AM 1.4 °F -12.5 °F -0.4 °F 92% 29.95 in 9.0 mi NW 8.1 mph - N/A Snow Light Snow
7:55 AM 1.4 °F -12.5 °F -0.4 °F 92% 29.95 in 10.0 mi NW 8.1 mph - N/A   Overcast
8:15 AM 1.4 °F -11.3 °F -0.4 °F 92% 29.96 in 9.0 mi NW 6.9 mph - N/A   Overcast
8:35 AM 1.4 °F -11.3 °F -0.4 °F 92% 29.96 in 9.0 mi NW 6.9 mph - N/A   Overcast
8:55 AM 1.4 °F -9.9 °F -2.2 °F 85% 29.97 in 10.0 mi WNW 5.8 mph - N/A   Overcast
9:15 AM 1.4 °F -9.9 °F -2.2 °F 85% 29.97 in 9.0 mi West 5.8 mph - N/A   Overcast
9:35 AM -0.4 °F -10.4 °F -2.2 °F 92% 29.98 in 9.0 mi WNW 4.6 mph - N/A   Overcast
9:55 AM 1.4 °F -9.9 °F -2.2 °F 85% 29.98 in 9.0 mi WNW 5.8 mph - N/A   Overcast
10:15 AM 1.4 °F -9.9 °F -0.4 °F 92% 29.99 in 10.0 mi West 5.8 mph - N/A   Overcast
10:35 AM 1.4 °F -9.9 °F -0.4 °F 92% 29.99 in 10.0 mi West 5.8 mph - N/A   Overcast
10:55 AM 1.4 °F -8.3 °F -0.4 °F 92% 29.99 in 9.0 mi West 4.6 mph - N/A   Overcast
11:15 AM 1.4 °F -9.9 °F -0.4 °F 92% 30.00 in 10.0 mi WNW 5.8 mph - N/A   Overcast
11:35 AM 1.4 °F -12.5 °F -0.4 °F 92% 29.99 in 10.0 mi WNW 8.1 mph - N/A   Overcast
11:55 AM 1.4 °F -12.5 °F -0.4 °F 92% 29.99 in 10.0 mi West 8.1 mph - N/A Snow Light Snow
12:15 PM -0.4 °F -14.7 °F -2.2 °F 92% 29.98 in 10.0 mi WNW 8.1 mph - N/A   Overcast
12:35 PM -0.4 °F -13.4 °F -4.0 °F 85% 29.97 in 10.0 mi West 6.9 mph - N/A   Scattered Clouds
12:55 PM -0.4 °F -15.7 °F -4.0 °F 85% 29.97 in 10.0 mi West 9.2 mph - N/A   Clear
1:15 PM -0.4 °F -14.7 °F -4.0 °F 85% 29.97 in 10.0 mi West 8.1 mph - N/A   Clear
1:35 PM -0.4 °F -12.0 °F -4.0 °F 85% 29.96 in 10.0 mi West 5.8 mph - N/A   Clear
1:55 PM -0.4 °F -13.4 °F -4.0 °F 85% 29.96 in 10.0 mi WSW 6.9 mph - N/A   Clear
2:15 PM -0.4 °F -13.4 °F -4.0 °F 85% 29.95 in 10.0 mi WSW 6.9 mph - N/A   Clear
2:35 PM -0.4 °F -13.4 °F -2.2 °F 92% 29.96 in 10.0 mi WSW 6.9 mph - N/A   Clear
2:55 PM -0.4 °F -12.0 °F -4.0 °F 85% 29.95 in 10.0 mi WSW 5.8 mph - N/A   Clear
3:15 PM -0.4 °F -12.0 °F -4.0 °F 85% 29.96 in 10.0 mi West 5.8 mph - N/A   Clear
3:35 PM -0.4 °F -8.3 °F -4.0 °F 85% 29.96 in 10.0 mi WSW 3.5 mph - N/A   Clear
3:55 PM -2.2 °F -16.8 °F -7.6 °F 78% 29.96 in 10.0 mi WSW 8.1 mph - N/A   Clear
4:15 PM -4.0 °F -21.2 °F -7.6 °F 85% 29.97 in 10.0 mi SW 10.4 mph - N/A   Clear
4:35 PM -4.0 °F -19.0 °F -7.6 °F 85% 29.97 in 10.0 mi SW 8.1 mph - N/A   Clear
4:55 PM -4.0 °F -14.6 °F -9.4 °F 78% 29.96 in 10.0 mi SSW 4.6 mph - N/A   Clear
5:15 PM -2.2 °F -14.2 °F -5.8 °F 85% 29.95 in 10.0 mi SSW 5.8 mph - N/A   Mostly Cloudy
5:35 PM -0.4 °F -13.4 °F -2.2 °F 92% 29.95 in 10.0 mi SW 6.9 mph - N/A   Overcast
5:55 PM 1.4 °F -14.5 °F -0.4 °F 92% 29.95 in 10.0 mi SW 10.4 mph - N/A   Overcast
6:15 PM 3.2 °F -13.1 °F -0.4 °F 85% 29.95 in 10.0 mi SW 11.5 mph - N/A   Overcast
6:35 PM 3.2 °F -12.2 °F -0.4 °F 85% 29.95 in 10.0 mi SW 10.4 mph - N/A   Overcast
6:55 PM 5.0 °F -11.6 °F 1.4 °F 85% 29.95 in 10.0 mi SW 12.7 mph - N/A   Overcast
7:15 PM 5.0 °F -11.6 °F 1.4 °F 85% 29.95 in 10.0 mi SSW 12.7 mph - N/A   Overcast
7:35 PM 5.0 °F -11.6 °F 3.2 °F 92% 29.95 in 10.0 mi SW 12.7 mph - N/A   Overcast
7:55 PM 6.8 °F -11.3 °F 5.0 °F 92% 29.95 in 10.0 mi SW 16.1 mph - N/A   Overcast
8:15 PM 6.8 °F -10.7 °F 5.0 °F 92% 29.94 in 10.0 mi SW 15.0 mph - N/A   Overcast
8:35 PM 6.8 °F -10.7 °F 5.0 °F 92% 29.93 in 10.0 mi SSW 15.0 mph - N/A   Overcast
8:55 PM 6.8 °F -10.7 °F 5.0 °F 92% 29.93 in 10.0 mi SSW 15.0 mph - N/A   Overcast
9:15 PM 5.0 °F -11.6 °F 1.4 °F 85% 29.93 in 10.0 mi SW 12.7 mph - N/A   Mostly Cloudy
9:35 PM 1.4 °F -14.5 °F -0.4 °F 92% 29.92 in 10.0 mi SSW 10.4 mph - N/A   Clear
9:55 PM 1.4 °F -16.1 °F -0.4 °F 92% 29.91 in 10.0 mi SSW 12.7 mph - N/A   Clear
10:15 PM 1.4 °F -16.9 °F -0.4 °F 92% 29.91 in 10.0 mi SSW 13.8 mph - N/A   Clear
10:35 PM 1.4 °F -17.6 °F -2.2 °F 85% 29.91 in 10.0 mi SSW 15.0 mph - N/A   Clear
10:55 PM -0.4 °F -19.9 °F -2.2 °F 92% 29.92 in 10.0 mi SSW 15.0 mph - N/A   Clear
11:15 PM -0.4 °F -18.4 °F -2.2 °F 92% 29.92 in 10.0 mi SW 12.7 mph - N/A   Clear
11:35 PM -0.4 °F -19.2 °F -2.2 °F 92% 29.91 in 10.0 mi SSW 13.8 mph - N/A   Clear